Starlink 1765

operational
NORAD ID: 46344 Int'l Des: 2020-062 Owner: SPXS Country: US Constellation: starlink
LEOCIRCULARSTARLINK_TYPE

About Starlink 1765

Description loading...

Live Position

Loading 3D Globe...

Upcoming Passes

Altitude History

Altitude vs Time

uPlot chart will show altitude changes over time

Two-Line Element Set

1 46344U 20062V 25257.50876179 -.00000241 00000-0 27258-5 0 9992
2 46344 53.0557 67.5237 0001392 93.8363 266.2785 15.06396675278039
Epoch: Sep 14, 2025 • Age: 17 hours

Current Status

Altitude 549.9 km
Velocity 7.59 km/s
Sub-Earth Point -8.69°S, 21.92°W
Launch Date Sep 3, 2020
Age 5 years
Type internet

Technical Details

Classification Payload
Mass 260.00 kg
Dry Mass 248.00 kg
Total Mass 260.00 kg
Length 0.20 m
Diameter 2.80 m
Span 9.00 m
Shape Box + pan
Manufacturer SPXS
Bus Type Starlink
Phase Status In Orbit
Owner/State SPXS/US

Large Constellations

Loading constellations...